Weather History for OTBD - January, 2013

Change the Weather History Date:

Monday, January 7, 2013

  Actual Average Record
Temperature  
Mean Temperature 76 °F -  
Max Temperature 84 °F 71 °F 84 °F (2013)
Min Temperature 67 °F 55 °F 51 °F (2008)
Cooling Degree Days 10    
Growing Degree Days 26 (Base 50)    
Moisture  
Dew Point 57 °F    
Average Humidity 57    
Maximum Humidity 83    
Minimum Humidity 25    
Precipitation  
Precipitation 0.00 in 0.02 in - ()
Sea Level Pressure  
Sea Level Pressure 29.90 in    
Wind  
Wind Speed 8 mph ()    
Max Wind Speed 16 mph    
Max Gust Speed -    
Visibility 2.9 miles    
Events      
Averages and records for this station are not official NWS values.
T = Trace of Precipitation, MM = Missing Value Source: Averaged Metar Reports

Daily Weather History Graph

Daily Weather History Graph

Search for Another Location

Airport or City:

Trip Planner

Search our weather history database for the weather conditions in past years. The results will help you decide how hot, cold, wet, or windy it might be!

Date:

Astronomy

Jan. 07, 2013 Rise Set
Actual Time 6:20 AM AST 4:59 PM AST
Civil Twilight 5:55 AM AST 5:24 PM AST
Nautical Twilight 5:27 AM AST 5:52 PM AST
Astronomical Twilight 4:59 AM AST 6:20 PM AST
Moon 1:26 AM AST (1/7) 12:45 PM AST (1/7)
Length of Visible Light 11h 28m
Length of Day
10h 38m
Waning Crescent, 26% of the Moon is Illuminated
Jan 7
Waning Crescent
Jan 11
New
Jan 19
First Quarter
Jan 27
Full
Feb 3
Last Quarter

Hourly Weather History & Observations

Time (AST) Temp. Heat Index Dew Point Humidity Pressure Visibility Wind Dir Wind Speed Gust Speed Precip Events Conditions
12:00 AM 71.6 °F - 62.6 °F 73% 29.89 in - SE 12.7 mph - N/A   Clear
12:30 AM 71.6 °F - 64.4 °F 78% 29.89 in - SE 10.4 mph - N/A   Clear
1:00 AM 69.8 °F - 64.4 °F 83% 29.89 in - SE 8.1 mph - N/A   Clear
2:00 AM 69.8 °F - 64.4 °F 83% 29.89 in - SSE 8.1 mph - N/A   Clear
2:30 AM 69.8 °F - 62.6 °F 78% 29.89 in - SSE 6.9 mph - N/A   Clear
3:00 AM 71 °F - 60 °F 61% 29.88 in 6 mi SSE 10.4 mph - -   Scattered Clouds
3:00 AM 69.8 °F - 60.8 °F 73% 29.86 in - SSE 10.4 mph - N/A   Clear
3:30 AM 69.8 °F - 60.8 °F 73% 29.86 in - SSE 6.9 mph - N/A   Clear
4:00 AM 69.8 °F - 60.8 °F 73% 29.86 in - South 5.8 mph - N/A   Clear
4:30 AM 69.8 °F - 60.8 °F 73% 29.89 in - South 5.8 mph - N/A   Clear
5:00 AM 69.8 °F - 59.0 °F 68% 29.89 in - South 4.6 mph - N/A   Clear
5:30 AM 69.8 °F - 57.2 °F 64% 29.89 in - South 5.8 mph - N/A   Clear
6:00 AM 68.0 °F - 57.2 °F 68% 29.89 in - South 6.9 mph - N/A   Clear
6:30 AM 68.0 °F - 55.4 °F 64% 29.92 in - South 4.6 mph - N/A   Clear
7:00 AM 68.0 °F - 53.6 °F 60% 29.92 in - South 4.6 mph - N/A   Clear
7:30 AM 69.8 °F - 51.8 °F 53% 29.95 in - South 4.6 mph - N/A   Clear
8:00 AM 69.8 °F - 53.6 °F 56% 29.95 in - South 6.9 mph - N/A   Clear
9:00 AM 75 °F - 51 °F 32% 29.99 in 9 mi SSW 11.5 mph - -   Scattered Clouds
9:00 AM 75.2 °F - 50.0 °F 41% 29.98 in - SSW 11.5 mph - N/A   Clear
10:00 AM 78.8 °F - 50.0 °F 36% 29.98 in - SSW 11.5 mph - N/A   Clear
11:00 AM 80.6 °F - 46.4 °F 30% 29.95 in 2.8 mi SSW 13.8 mph - N/A   Unknown
12:00 PM 82.4 °F - 44.6 °F 26% 29.92 in 1.2 mi SSW 16.1 mph - N/A   Unknown
1:00 PM 84.2 °F - 44.6 °F 25% 29.86 in 1.2 mi South 11.5 mph - N/A   Unknown
2:00 PM 80.6 °F 80.3 °F 53.6 °F 39% 29.83 in 0.9 mi SE 12.7 mph - N/A   Unknown
2:30 PM 80.6 °F 80.5 °F 55.4 °F 42% 29.83 in 1.2 mi SE 11.5 mph - N/A   Unknown
3:00 PM 80 °F - 55 °F 32% 29.85 in 1 mi SE 10.4 mph - -   Widespread Dust
3:00 PM 80.6 °F 80.5 °F 55.4 °F 42% 29.83 in 1.2 mi SE 10.4 mph - N/A   Unknown
3:30 PM 78.8 °F - 55.4 °F 44% 29.86 in 1.6 mi SE 9.2 mph - N/A   Unknown
4:00 PM 77.0 °F - 60.8 °F 57% 29.86 in 2.2 mi ESE 8.1 mph - N/A   Unknown
4:30 PM 75.2 °F - 57.2 °F 53% 29.86 in 2.2 mi SE 10.4 mph - N/A   Unknown
5:00 PM 75.2 °F - 59.0 °F 57% 29.86 in 2.5 mi SE 9.2 mph - N/A   Unknown
5:30 PM 75.2 °F - 60.8 °F 61% 29.86 in 2.5 mi SE 9.2 mph - N/A   Unknown
6:00 PM 75.2 °F - 62.6 °F 65% 29.89 in 2.5 mi SE 4.6 mph - N/A   Unknown
6:30 PM 73.4 °F - 62.6 °F 69% 29.89 in 2.5 mi SE 6.9 mph - N/A   Unknown
7:00 PM 73.4 °F - 64.4 °F 73% 29.89 in 2.2 mi SSE 3.5 mph - N/A   Unknown
7:30 PM 75.2 °F - 64.4 °F 69% 29.92 in 2.2 mi Calm Calm - N/A   Unknown
8:00 PM 75.2 °F - 62.6 °F 65% 29.92 in 2.2 mi Calm Calm - N/A   Unknown
9:00 PM 75 °F - 62 °F 55% 29.95 in 2 mi 1.2 mph - -   Widespread Dust
9:00 PM 75.2 °F - 62.6 °F 65% 29.95 in 2.5 mi Variable 1.2 mph - N/A   Unknown
10:00 PM 75.2 °F - 59.0 °F 57% 29.95 in 4.3 mi Variable 2.3 mph - N/A   Unknown
10:30 PM 77.0 °F - 53.6 °F 44% 29.95 in 5.0 mi NNW 5.8 mph - N/A   Unknown
11:00 PM 75.2 °F - 53.6 °F 47% 29.95 in 5.6 mi NNW 9.2 mph - N/A   Unknown
11:30 PM 75.2 °F - 53.6 °F 47% 29.95 in 5.6 mi NNW 8.1 mph - N/A   Unknown